Theta_e
336 333 322 312 302 300 296 298 302 304 304 306 309 308 312 311 311 305 325 336 340 341 344 345 346 346 346 345 344 343 342 343 342 342 339 342 345 342 341 339 341 339 337 338 338 338 336 336 336
333 332 315 307 299 293 294 300 303 304 308 309 309 309 310 312 321 322 323 336 340 341 344 344 343 345 345 345 344 342 340 341 340 340 339 340 345 343 340 339 341 339 337 337 337 337 336 335 336
332 325 307 302 298 294 295 301 305 307 310 309 308 313 315 314 321 323 328 333 339 339 343 343 343 345 345 345 344 342 339 338 338 339 338 340 343 342 341 340 340 338 336 337 337 336 335 335 335
323 317 310 299 296 299 300 303 308 307 309 311 310 310 318 325 323 328 330 331 335 337 342 341 344 345 345 344 343 343 342 341 341 337 337 338 342 342 341 341 340 335 335 335 336 335 335 334 334
320 311 302 298 297 300 304 308 308 307 307 307 309 306 314 324 330 329 329 328 333 337 340 342 343 344 345 344 344 344 343 343 341 338 336 336 337 340 341 341 340 335 334 334 335 334 334 333 332
311 310 299 298 296 302 304 306 308 306 309 308 307 310 314 323 326 328 329 327 335 337 340 342 338 340 342 343 344 343 343 342 340 339 337 336 336 339 341 341 339 337 334 333 334 334 333 332 331
309 305 300 301 303 300 303 307 306 306 307 308 312 308 315 321 325 328 328 326 332 337 339 339 340 338 335 338 339 340 342 341 339 337 337 335 333 336 337 336 338 338 335 334 334 333 332 331 330
311 306 301 300 301 301 303 306 306 307 307 314 313 307 310 320 325 326 325 323 326 334 337 338 337 338 337 335 332 335 337 338 337 335 332 329 329 331 333 331 332 337 337 334 333 333 332 331 328
315 302 298 301 302 305 304 302 306 308 306 310 316 317 320 325 325 322 320 320 321 328 335 337 337 336 335 334 331 331 332 332 331 329 327 324 324 325 327 327 329 333 336 336 334 332 332 330 327
308 300 302 308 307 309 308 304 306 304 303 304 312 320 324 325 322 320 318 318 318 321 325 335 337 336 335 335 332 330 331 329 328 326 325 325 324 324 325 323 327 330 330 333 335 333 330 325 318
308 302 306 309 312 312 311 306 309 307 304 306 305 316 321 322 322 320 319 318 319 320 323 329 335 335 335 334 332 330 327 326 327 324 323 324 324 322 322 322 323 327 323 324 327 327 324 320 318
301 307 305 307 310 310 307 310 307 307 309 314 312 318 320 320 321 321 321 319 319 318 322 322 332 332 333 332 331 330 328 326 325 324 324 323 321 320 322 322 321 321 322 320 319 317 319 319 319
300 303 307 309 307 309 310 307 306 306 311 313 313 315 318 320 321 322 324 323 321 319 321 323 322 331 332 330 331 329 328 327 326 325 325 325 323 321 322 322 322 322 321 321 318 317 316 317 317
304 306 306 307 305 306 306 305 306 307 309 311 311 311 311 317 319 320 321 322 321 321 320 323 321 326 332 330 329 329 328 328 326 326 326 326 325 323 321 320 320 321 321 321 319 318 317 316 317
306 301 304 304 305 304 306 301 302 308 307 307 307 307 309 311 313 315 319 322 323 323 322 322 323 323 328 330 329 329 329 328 327 326 326 327 325 323 322 321 320 320 319 317 317 317 315 316 316
300 299 292 300 304 304 303 293 301 306 304 304 305 304 306 309 311 313 314 315 321 324 322 322 325 324 323 329 329 329 328 326 327 326 326 326 325 324 321 322 321 321 319 317 315 315 314 314 314
296 288 292 296 303 300 302 295 303 306 303 301 302 302 304 307 308 311 312 313 317 323 323 322 323 324 324 323 328 327 325 325 325 325 325 325 325 324 323 322 322 321 319 317 316 313 313 312 312
289 290 292 291 297 299 298 299 302 305 305 303 302 303 304 306 308 310 312 313 314 320 325 324 322 324 325 324 323 324 323 323 323 325 325 325 325 325 323 321 321 321 319 317 315 314 312 312 313
294 292 291 295 300 296 295 296 298 301 300 299 300 301 303 305 310 311 312 312 312 313 322 324 322 322 324 323 321 322 322 323 322 324 325 325 325 325 324 321 320 320 319 317 316 315 311 312 312
295 293 290 294 297 297 294 293 296 298 299 301 302 302 303 303 306 308 309 310 311 312 317 324 324 323 323 324 324 324 323 324 324 324 324 325 325 324 323 322 320 320 319 317 315 314 312 313 314
294 292 291 292 294 295 291 290 293 297 298 301 303 304 304 305 306 306 307 308 309 310 310 320 325 325 324 325 325 323 322 320 320 322 323 324 325 325 323 323 321 321 321 318 317 315 314 311 314
290 298 297 294 290 284 291 280 288 293 295 296 297 300 302 305 306 307 308 306 307 308 312 315 321 325 326 325 324 322 321 319 322 323 324 323 324 325 325 323 322 321 322 321 320 318 316 314 312
292 296 293 292 289 286 285 282 285 290 290 293 294 296 299 302 303 304 305 306 307 309 308 310 317 322 325 326 325 323 322 323 323 323 322 322 323 324 325 325 323 321 321 322 322 320 318 317 316
297 294 293 291 288 279 285 284 283 287 290 292 297 298 300 302 302 304 301 302 300 301 302 309 312 318 322 325 325 324 323 323 322 322 321 321 321 322 323 325 324 323 322 321 323 322 321 319 319
295 289 283 281 281 278 287 284 287 291 294 295 296 298 298 300 299 296 297 299 300 300 300 301 306 312 317 322 324 325 324 324 323 322 322 321 321 321 322 323 324 324 323 322 322 322 322 321 319
291 290 278 271 276 277 285 281 286 295 298 299 299 299 296 295 295 296 297 298 298 299 299 299 300 303 310 317 322 325 326 325 325 325 324 323 323 323 324 324 324 324 324 323 322 321 321 322 321
290 287 291 282 278 281 281 286 293 296 296 298 298 299 296 297 296 298 300 299 299 300 300 299 300 301 302 309 317 322 325 325 325 325 326 325 324 324 324 324 324 324 324 324 323 321 320 321 321
293 294 285 281 275 272 278 280 285 289 291 296 297 296 295 297 298 300 300 301 301 301 301 299 299 300 301 301 305 311 319 324 326 326 325 325 325 324 323 323 323 323 323 324 323 322 321 320 321
289 288 289 287 281 277 274 278 287 290 292 293 294 295 295 297 298 300 300 301 301 301 302 301 301 300 300 300 302 304 308 315 323 325 325 325 325 325 323 323 323 322 322 322 322 322 321 320 320
292 290 289 282 280 280 281 281 292 293 295 295 295 296 297 298 299 298 299 300 299 299 300 301 302 301 300 299 300 302 304 308 314 321 325 325 324 324 323 323 323 323 322 322 321 321 321 320 320
Wind_Speed
14 13 3 5 6 6 2 2 4 3 4 1 3 6 8 3 3 4 0 15 17 12 10 11 13 15 15 14 13 12 12 13 14 14 14 13 18 18 18 17 14 16 17 16 16 16 15 15 14
11 9 5 3 5 4 3 4 7 3 3 3 4 4 5 2 3 5 7 14 17 14 10 11 12 14 15 13 14 13 13 13 14 14 14 14 14 18 18 16 12 16 15 15 15 15 14 13 12
17 3 3 4 3 3 3 3 6 2 4 2 2 5 4 3 2 6 6 14 16 14 12 11 14 14 13 14 14 13 13 13 14 13 13 12 13 12 15 16 13 14 14 14 14 13 12 11 10
5 6 5 5 3 4 5 5 7 5 2 3 3 6 5 1 8 8 7 12 12 13 14 13 14 15 13 11 12 12 13 14 13 13 13 12 12 12 12 17 12 12 12 13 13 12 11 9 8
5 3 4 4 2 3 5 6 7 4 5 1 2 5 4 3 8 10 9 9 11 10 10 13 13 13 14 13 11 11 11 13 14 12 12 11 11 12 9 15 14 11 11 11 11 10 9 7 6
5 3 4 3 2 3 3 2 4 4 5 2 3 5 3 3 6 7 7 10 12 11 9 10 12 12 10 12 11 10 11 15 15 15 11 12 11 9 11 12 14 13 10 10 10 9 9 6 5
2 3 3 5 3 1 3 2 3 3 5 0 3 4 3 4 7 6 7 8 12 11 10 7 7 9 11 10 10 11 11 12 14 15 12 11 12 8 8 8 12 13 12 9 9 8 7 5 3
3 3 3 3 3 1 4 2 1 5 1 1 2 4 4 6 9 8 6 7 10 10 12 10 7 8 7 7 9 9 11 11 12 12 11 9 9 10 8 8 9 8 14 11 9 8 7 5 2
3 3 2 4 2 3 3 3 1 3 4 1 2 4 5 10 8 6 5 5 5 7 10 11 10 8 7 6 6 8 11 11 11 10 11 8 4 5 8 9 9 6 8 12 10 9 8 6 3
4 4 7 5 4 3 2 4 6 3 1 2 4 5 8 10 7 8 7 7 6 9 8 10 12 12 11 8 7 6 6 5 5 5 7 5 6 6 5 6 9 9 6 6 9 9 8 6 3
5 5 1 8 5 6 1 3 1 5 1 5 3 8 7 4 10 9 7 6 8 7 6 10 11 11 12 10 7 5 4 5 5 7 6 6 4 4 4 3 4 5 7 3 3 4 4 5 4
2 7 2 6 4 3 3 4 4 2 7 6 1 10 9 9 9 12 12 8 7 7 10 7 10 10 11 7 7 7 6 6 6 7 8 5 4 5 5 4 4 5 4 5 5 3 5 5 6
3 5 4 6 8 3 1 5 4 8 9 8 8 6 11 11 12 10 12 12 12 13 12 12 7 11 11 10 8 8 8 8 8 8 9 7 6 7 7 6 5 5 5 5 5 5 5 5 6
0 0 5 5 5 4 2 5 4 10 2 8 9 10 7 12 14 12 9 13 14 15 14 14 11 10 11 11 11 9 8 9 9 9 10 11 7 8 7 7 6 6 6 6 6 6 5 5 4
1 1 6 4 4 4 0 7 9 19 5 11 11 10 9 9 10 14 16 15 16 14 16 17 17 12 12 13 10 8 8 9 10 9 11 13 10 10 9 7 8 8 7 7 5 6 5 4 4
2 3 1 4 7 7 9 9 6 12 6 12 13 12 10 12 12 12 11 10 13 13 16 17 15 16 12 13 10 8 8 8 9 8 8 12 12 10 8 8 8 8 8 7 6 5 4 5 5
3 3 7 6 10 7 11 2 10 9 5 7 8 9 9 12 9 10 10 9 10 14 15 16 16 17 16 11 9 9 8 7 6 7 8 11 12 11 10 8 8 9 8 7 7 5 5 5 4
7 4 5 6 6 6 8 12 8 9 11 9 9 9 8 8 10 8 9 9 10 11 14 16 14 17 16 11 7 5 5 5 5 8 9 11 12 14 10 8 8 9 7 7 6 6 4 4 5
3 4 8 6 12 4 9 10 8 8 7 10 8 9 10 11 11 9 9 9 9 8 12 15 15 15 12 11 11 10 11 9 7 9 12 12 12 13 13 9 9 10 10 10 11 8 7 6 5
6 6 4 7 3 4 7 11 8 8 10 15 17 16 14 7 9 10 9 8 8 10 12 15 17 16 15 12 12 11 12 9 9 8 10 12 12 13 13 13 11 12 9 11 11 11 5 6 6
9 9 4 6 8 4 6 14 11 11 8 14 19 18 16 18 16 10 9 9 8 9 9 12 16 18 17 17 10 6 3 2 5 9 11 13 14 14 15 15 13 13 12 11 13 12 14 9 7
13 10 11 2 4 4 5 10 7 6 16 10 12 11 17 18 16 16 15 10 10 11 11 13 14 15 15 17 13 16 14 13 12 12 11 11 16 15 16 16 16 15 12 14 13 12 11 10 10
6 4 5 5 5 2 1 5 7 5 7 15 9 10 12 15 13 14 11 6 5 6 6 7 10 13 15 16 18 15 16 13 11 10 12 14 13 17 16 17 17 16 13 15 15 14 16 13 10
3 4 3 4 2 6 8 8 6 7 8 6 5 4 1 4 6 7 5 6 4 5 7 6 6 9 12 14 19 19 19 17 12 12 10 11 11 12 18 18 17 16 15 16 15 15 17 16 15
10 6 2 4 6 8 8 8 16 5 13 6 7 7 1 4 7 6 7 7 7 8 8 6 5 7 8 12 15 19 19 17 18 16 12 13 11 11 16 20 17 15 17 17 15 15 16 17 15
10 11 7 8 6 4 5 11 8 9 15 15 9 6 6 9 5 5 5 3 5 7 7 7 7 7 6 8 15 15 18 13 13 16 13 12 13 13 16 17 19 20 19 17 16 13 14 16 16
8 9 7 5 2 2 6 8 9 9 11 9 8 4 6 8 5 5 5 2 3 6 8 6 7 7 7 7 7 11 14 16 16 18 15 13 14 12 15 16 18 19 18 17 17 13 15 15 16
9 7 4 1 4 4 6 5 10 7 7 9 8 6 6 6 5 5 4 4 3 6 6 7 7 8 8 7 5 7 8 14 16 16 18 16 15 14 13 15 16 17 18 17 17 16 15 16 14
8 6 6 6 6 5 2 7 8 13 10 5 5 7 7 7 3 1 4 6 7 6 6 7 7 8 8 7 7 7 8 9 11 15 16 17 13 13 13 14 16 17 17 17 17 18 18 18 18
17 19 11 6 5 4 2 9 6 7 7 8 6 6 4 4 3 5 8 7 8 8 9 11 10 8 7 7 7 7 9 8 9 12 15 14 14 11 11 13 15 16 17 18 19 20 18 20 20
Wind_Direction
317 311 299 36 53 65 73 66 115 84 61 97 33 68 122 63 58 152 86 124 131 135 140 132 128 128 126 122 119 116 113 112 118 115 113 102 101 107 102 99 97 95 96 95 96 96 95 95 90
312 314 31 61 81 72 298 109 88 64 120 93 47 72 42 90 96 131 98 138 135 136 139 136 133 135 135 130 127 126 125 121 119 122 122 110 105 113 107 103 102 101 102 101 100 99 97 95 88
313 253 65 87 94 116 141 145 125 87 43 63 83 62 91 72 83 141 160 134 135 141 140 143 141 141 136 130 128 128 127 126 124 126 127 118 117 98 112 106 98 107 104 104 104 102 99 97 85
330 352 9 80 125 20 94 157 125 122 28 35 95 75 71 351 163 157 139 127 138 145 143 147 145 143 138 136 136 135 137 138 132 132 134 131 112 117 118 117 112 113 111 108 106 103 102 95 76
5 42 8 47 16 101 68 129 148 157 152 214 102 131 94 42 99 133 129 126 112 131 143 147 147 149 146 144 148 149 149 143 130 132 135 143 131 122 118 128 117 121 118 114 111 109 103 92 69
359 65 39 8 67 130 77 13 120 115 134 151 51 104 136 122 107 155 136 133 127 129 141 149 148 149 147 149 153 158 149 141 142 134 144 147 148 121 124 115 128 125 130 128 120 119 113 101 66
71 68 245 299 255 164 174 167 69 173 128 142 162 72 148 160 158 160 149 136 129 137 138 140 149 156 156 158 158 160 157 149 145 144 142 152 157 125 119 131 109 134 132 133 131 127 124 118 87
84 82 297 292 306 329 174 97 120 70 157 274 63 140 189 198 167 154 139 142 131 145 148 153 160 163 164 159 160 164 163 159 154 148 148 158 158 153 135 139 155 123 138 140 141 143 143 138 131
37 55 239 258 306 273 192 120 22 153 94 72 62 117 147 136 134 137 134 140 143 149 159 164 168 172 162 167 169 164 165 160 158 155 153 147 156 180 165 168 168 158 126 148 156 156 157 156 182
116 164 214 243 2 324 263 146 162 93 107 184 83 64 132 137 151 169 177 179 173 178 175 173 171 179 172 172 164 166 165 163 162 171 164 161 169 176 179 180 161 153 153 158 167 166 167 174 201
190 215 217 285 37 30 36 294 112 130 226 226 165 184 163 167 168 182 210 195 190 194 189 189 179 183 175 177 171 174 177 170 177 178 171 176 186 188 172 171 175 151 155 179 177 171 182 199 203
191 259 206 293 47 39 334 309 346 178 220 242 62 179 161 172 198 192 199 202 192 196 204 193 194 187 177 168 173 181 180 186 187 187 178 176 174 177 169 172 178 167 166 181 199 203 209 213 226
197 254 258 291 334 215 35 300 267 283 272 295 307 151 185 193 199 211 205 193 195 202 191 209 187 195 190 181 182 183 191 191 190 187 193 187 181 181 170 179 180 189 179 186 192 209 210 223 220
179 65 297 308 295 283 191 266 38 268 256 286 283 278 232 202 209 209 206 205 195 199 197 197 196 194 193 200 192 189 188 198 196 190 195 200 183 184 180 177 185 189 195 196 187 199 208 214 202
101 30 336 319 286 258 215 275 224 262 248 267 268 257 256 256 207 206 211 211 201 200 193 189 198 191 187 201 194 198 204 197 197 200 190 196 194 183 185 181 187 193 191 192 191 199 195 210 212
146 76 342 264 235 245 153 247 258 265 239 253 257 257 249 253 229 226 212 205 204 195 190 191 192 197 193 194 197 203 205 202 204 198 197 197 195 189 187 194 196 189 187 187 188 182 198 204 197
222 187 219 284 241 241 191 203 240 251 234 241 260 265 261 257 254 238 232 214 199 194 190 192 189 193 197 194 195 197 200 203 200 204 202 202 202 193 196 202 198 190 191 190 192 192 170 186 202
201 196 214 225 270 195 234 244 257 261 278 273 273 277 270 263 262 257 237 226 201 195 194 189 189 195 194 190 186 191 199 201 186 207 211 205 205 205 199 198 199 191 193 194 193 194 192 179 194
203 208 206 248 259 228 245 251 257 266 281 284 287 270 268 263 263 242 242 234 230 204 188 189 187 196 186 193 193 198 209 207 204 205 212 212 210 205 207 208 197 198 201 202 198 198 190 219 180
254 273 263 284 270 305 309 281 256 256 255 258 259 260 257 258 266 268 257 245 224 218 195 193 195 186 193 197 206 206 202 210 210 208 218 216 211 207 209 209 207 200 202 203 197 194 196 209 184
218 226 234 225 325 328 338 293 269 270 267 259 255 249 251 246 253 252 250 239 236 225 225 200 201 194 194 200 195 204 187 178 192 207 215 215 211 211 212 213 211 205 203 205 204 199 199 205 202
231 207 225 260 341 255 81 288 258 276 277 277 256 241 238 249 247 251 252 252 237 230 215 208 204 201 198 194 194 198 203 210 222 219 218 215 217 214 212 214 215 213 208 210 206 202 203 196 205
213 147 183 200 237 291 209 297 274 209 276 276 273 246 242 245 232 236 243 263 309 308 258 238 219 198 198 194 200 201 209 215 217 215 221 216 216 221 221 217 214 216 215 217 210 204 204 205 204
172 120 107 75 76 267 191 188 244 217 216 245 198 33 108 75 103 97 92 95 49 23 12 356 263 236 213 197 204 207 212 215 216 217 216 219 216 212 221 224 219 220 219 218 215 211 208 208 212
164 136 174 199 206 233 197 194 248 282 281 246 274 297 167 87 79 85 73 47 20 4 347 344 343 280 251 223 212 214 216 215 220 220 219 215 215 213 214 216 221 220 222 222 219 215 216 213 212
182 173 163 181 191 236 176 233 249 234 247 261 271 227 108 90 98 96 84 48 6 330 330 333 334 310 296 245 230 222 222 220 222 225 225 224 223 218 213 211 215 222 221 220 221 219 220 218 220
186 201 159 95 25 123 224 288 287 248 268 255 235 196 144 130 128 74 18 39 319 315 303 296 318 313 300 285 266 239 227 226 228 230 231 233 227 225 219 211 210 217 219 221 220 222 226 227 225
178 151 159 18 203 235 254 255 236 311 265 246 251 144 166 125 111 25 13 332 320 326 323 325 304 291 291 297 281 268 252 239 233 233 233 231 231 221 216 214 213 214 217 216 215 223 224 226 227
180 197 194 150 173 190 230 254 222 236 262 142 118 143 154 127 87 41 350 3 1 343 343 318 309 297 296 291 289 285 270 256 245 238 234 233 230 227 215 214 216 216 214 215 215 220 223 226 226
212 212 190 178 199 222 154 259 216 131 126 136 134 123 77 81 63 36 35 19 10 356 346 335 329 327 307 291 289 284 280 272 256 250 237 230 230 222 215 212 216 219 216 214 216 220 217 222 227